Weather History for Pampa / Mesa Vista, TX

Change the Weather History Date:

Wednesday, October 24, 2012

  Actual Average (KBGD) Record (KBGD)
Temperature  
Mean Temperature 73 °F 58 °F  
Max Temperature 87 °F 70 °F 88 °F (2012)
Min Temperature 59 °F 45 °F 28 °F (2005)
Degree Days  
Heating Degree Days 0 8  
Month to date heating degree days 126  
Since 1 July heating degree days 154  
Cooling Degree Days 8 1  
Month to date cooling degree days 48  
Year to date cooling degree days 1833  
Growing Degree Days 23 (Base 50)    
Moisture  
Dew Point 53 °F    
Average Humidity 53    
Maximum Humidity 73    
Minimum Humidity 22    
Precipitation  
Precipitation 0.00 in 0.04 in 0.44 in (1964)
Month to date precipitation 1.42  
Year to date precipitation 19.81  
Snow  
Snow 0.00 in - - ()
Month to date snowfall  
Since 1 July snowfall  
Since 1 September snowfall  
Snow Depth -    
Sea Level Pressure  
Sea Level Pressure 29.75 in    
Wind  
Wind Speed 14 mph (SSW)    
Max Wind Speed 29 mph    
Max Gust Speed 34 mph    
Visibility 10 miles    
Events      
T = Trace of Precipitation, MM = Missing Value Source: NWS Daily Summary

Daily Weather History Graph

Daily Weather History Graph

Search for Another Location

Airport:

Trip Planner

Search our weather history database for the weather conditions in past years. The results will help you decide how hot, cold, wet, or windy it might be!

Date:

Astronomy

Oct. 24, 2012 Rise Set
Actual Time 7:59 AM CDT 6:56 PM CDT
Civil Twilight 7:33 AM CDT 7:22 PM CDT
Nautical Twilight 7:03 AM CDT 7:52 PM CDT
Astronomical Twilight 6:33 AM CDT 8:22 PM CDT
Moon 4:05 PM CDT (10/24) 3:05 AM CDT (10/24)
Length of Visible Light 11h 49m
Length of Day
10h 57m
Waxing Gibbous, 76% of the Moon is Illuminated
Oct 24
Waxing Gibbous
Oct 29
Full
Nov 6
Last Quarter
Nov 13
New
Nov 20
First Quarter

Hourly Weather History & Observations

Time (CDT) Temp. Heat Index Dew Point Humidity Pressure Visibility Wind Dir Wind Speed Gust Speed Precip Events Conditions
12:15 AM 69.8 °F - 46.4 °F 43% 29.81 in 10.0 mi South 16.1 mph - N/A   Clear
12:35 AM 69.8 °F - 46.4 °F 43% 29.81 in 10.0 mi South 13.8 mph 18.4 mph N/A   Clear
12:55 AM 69.8 °F - 46.4 °F 43% 29.81 in 10.0 mi SSW 12.7 mph - N/A   Clear
1:15 AM 68.0 °F - 46.4 °F 46% 29.81 in 10.0 mi SSW 12.7 mph - N/A   Clear
1:35 AM 68.0 °F - 46.4 °F 46% 29.82 in 10.0 mi SSW 9.2 mph - N/A   Clear
1:55 AM 68.0 °F - 46.4 °F 46% 29.82 in 10.0 mi SW 11.5 mph 17.3 mph N/A   Clear
2:15 AM 64.4 °F - 46.4 °F 52% 29.82 in 10.0 mi SW 8.1 mph - N/A   Clear
2:35 AM 64.4 °F - 46.4 °F 52% 29.82 in 10.0 mi West 3.5 mph - N/A   Clear
2:55 AM 64.4 °F - 46.4 °F 52% 29.82 in 10.0 mi WSW 4.6 mph - N/A   Clear
3:15 AM 62.6 °F - 46.4 °F 55% 29.81 in 10.0 mi SSW 6.9 mph - N/A   Clear
3:35 AM 60.8 °F - 46.4 °F 59% 29.82 in 10.0 mi WSW 6.9 mph - N/A   Clear
3:55 AM 60.8 °F - 48.2 °F 63% 29.82 in 10.0 mi WSW 3.5 mph - N/A   Clear
4:15 AM 60.8 °F - 46.4 °F 59% 29.82 in 10.0 mi WSW 5.8 mph - N/A   Clear
4:35 AM 59.0 °F - 46.4 °F 63% 29.82 in 10.0 mi SW 5.8 mph - N/A   Clear
4:55 AM 60.8 °F - 50.0 °F 68% 29.81 in 10.0 mi SW 9.2 mph - N/A   Clear
5:15 AM 60.8 °F - 50.0 °F 68% 29.82 in 10.0 mi SSW 9.2 mph - N/A   Clear
5:35 AM 60.8 °F - 50.0 °F 68% 29.82 in 10.0 mi SW 10.4 mph - N/A   Clear
5:55 AM 60.8 °F - 51.8 °F 72% 29.82 in 10.0 mi SSW 10.4 mph - N/A   Clear
6:15 AM 60.8 °F - 51.8 °F 72% 29.81 in 10.0 mi SW 12.7 mph - N/A   Clear
6:35 AM 60.8 °F - 51.8 °F 72% 29.81 in 10.0 mi SW 11.5 mph - N/A   Clear
6:55 AM 62.6 °F - 51.8 °F 68% 29.81 in 10.0 mi SW 13.8 mph - N/A   Clear
7:15 AM 62.6 °F - 53.6 °F 72% 29.81 in 10.0 mi SW 11.5 mph - N/A   Clear
7:35 AM 62.6 °F - 53.6 °F 72% 29.81 in 10.0 mi SW 13.8 mph - N/A   Clear
7:55 AM 64.4 °F - 53.6 °F 68% 29.80 in 10.0 mi SSW 18.4 mph 23.0 mph N/A   Clear
8:15 AM 64.4 °F - 53.6 °F 68% 29.81 in 10.0 mi SW 16.1 mph 25.3 mph N/A   Clear
8:35 AM 64.4 °F - 53.6 °F 68% 29.82 in 10.0 mi SW 15.0 mph - N/A   Clear
8:55 AM 64.4 °F - 55.4 °F 73% 29.82 in 10.0 mi SW 13.8 mph 19.6 mph N/A   Clear
9:15 AM 64.4 °F - 55.4 °F 73% 29.82 in 10.0 mi SW 10.4 mph - N/A   Clear
9:35 AM 66.2 °F - 55.4 °F 68% 29.82 in 10.0 mi SW 11.5 mph - N/A   Clear
10:15 AM 69.8 °F - 59.0 °F 68% 29.82 in 10.0 mi SW 16.1 mph 21.9 mph N/A   Clear
11:15 AM 71.6 °F - 57.2 °F 60% 29.82 in 10.0 mi WSW 15.0 mph - N/A   Clear
11:35 AM 73.4 °F - 57.2 °F 57% 29.82 in 10.0 mi SW 13.8 mph - N/A   Clear
11:55 AM 77.0 °F - 55.4 °F 47% 29.82 in 10.0 mi SW 15.0 mph 19.6 mph N/A   Clear
12:15 PM 77.0 °F - 55.4 °F 47% 29.81 in 10.0 mi SW 16.1 mph - N/A   Clear
12:55 PM 77.0 °F - 53.6 °F 44% 29.80 in 10.0 mi SSW 15.0 mph - N/A   Clear
1:35 PM 82.4 °F - 51.8 °F 35% 29.78 in 10.0 mi SW 13.8 mph 19.6 mph N/A   Clear
1:55 PM 86.0 °F - 50.0 °F 29% 29.76 in 10.0 mi SSW 11.5 mph 16.1 mph N/A   Clear
2:15 PM 87.8 °F - 46.4 °F 24% 29.74 in 10.0 mi SSW 20.7 mph 26.5 mph N/A   Clear
2:35 PM 87.8 °F - 44.6 °F 22% 29.73 in 10.0 mi SSW 23.0 mph 28.8 mph N/A   Clear
2:55 PM 87.8 °F - 46.4 °F 24% 29.73 in 10.0 mi SSW 23.0 mph 27.6 mph N/A   Clear
3:15 PM 87.8 °F - 48.2 °F 25% 29.71 in 10.0 mi SW 21.9 mph 28.8 mph N/A   Clear
3:35 PM 86.0 °F - 50.0 °F 29% 29.71 in 10.0 mi SW 21.9 mph 27.6 mph N/A   Clear
3:55 PM 86.0 °F - 51.8 °F 31% 29.70 in 10.0 mi South 19.6 mph 25.3 mph N/A   Clear
4:15 PM 84.2 °F - 51.8 °F 33% 29.71 in 10.0 mi South 18.4 mph 25.3 mph N/A   Clear
4:35 PM 86.0 °F - 51.8 °F 31% 29.69 in 10.0 mi South 13.8 mph 25.3 mph N/A   Clear
4:55 PM 87.8 °F - 50.0 °F 27% 29.68 in 10.0 mi SSW 23.0 mph 27.6 mph N/A   Clear
5:15 PM 86.0 °F - 51.8 °F 31% 29.68 in 10.0 mi South 20.7 mph 26.5 mph N/A   Clear
5:35 PM 86.0 °F - 51.8 °F 31% 29.67 in 10.0 mi South 21.9 mph 29.9 mph N/A   Clear
5:55 PM 86.0 °F 84.2 °F 53.6 °F 33% 29.66 in 10.0 mi South 20.7 mph 26.5 mph N/A   Clear
6:15 PM 84.2 °F 83.5 °F 57.2 °F 40% 29.66 in 10.0 mi South 20.7 mph 27.6 mph N/A   Clear
6:35 PM 82.4 °F 82.5 °F 59.0 °F 45% 29.66 in 10.0 mi South 19.6 mph 27.6 mph N/A   Clear
6:55 PM 80.6 °F 81.1 °F 59.0 °F 48% 29.66 in 10.0 mi South 21.9 mph 29.9 mph N/A   Clear
7:15 PM 78.8 °F - 60.8 °F 54% 29.66 in 10.0 mi South 18.4 mph 26.5 mph N/A   Clear
7:55 PM 77.0 °F - 60.8 °F 57% 29.66 in 10.0 mi South 19.6 mph 27.6 mph N/A   Clear
8:15 PM 77.0 °F - 60.8 °F 57% 29.65 in 10.0 mi South 19.6 mph 24.2 mph N/A   Clear
8:35 PM 75.2 °F - 59.0 °F 57% 29.66 in 10.0 mi South 16.1 mph - N/A   Clear
8:55 PM 75.2 °F - 59.0 °F 57% 29.66 in 10.0 mi South 20.7 mph 26.5 mph N/A   Clear
9:15 PM 77.0 °F - 59.0 °F 54% 29.65 in 10.0 mi South 23.0 mph 33.4 mph N/A   Clear
9:35 PM 75.2 °F - 59.0 °F 57% 29.64 in 10.0 mi South 21.9 mph 29.9 mph N/A   Clear
9:55 PM 73.4 °F - 60.8 °F 65% 29.65 in 10.0 mi South 24.2 mph 32.2 mph N/A   Clear
10:15 PM 73.4 °F - 60.8 °F 65% 29.65 in 10.0 mi South 24.2 mph 34.5 mph N/A   Clear
10:35 PM 73.4 °F - 60.8 °F 65% 29.64 in 10.0 mi South 26.5 mph 34.5 mph N/A   Clear
10:55 PM 73.4 °F - 62.6 °F 69% 29.64 in 10.0 mi South 25.3 mph 32.2 mph N/A   Clear
11:15 PM 71.6 °F - 62.6 °F 73% 29.64 in 10.0 mi South 24.2 mph 31.1 mph N/A   Clear
11:35 PM 71.6 °F - 62.6 °F 73% 29.63 in 10.0 mi South 28.8 mph 34.5 mph N/A   Clear
11:55 PM 71.6 °F - 62.6 °F 73% 29.64 in 10.0 mi South 23.0 mph 29.9 mph N/A   Clear